WMT2Q LROP-LZIB

Flight info

Callsign WMT2Q
Flight time 1h 15m
Altitude 36000
Route SOKRU DCT OXDOC DCT IRLOX DCT EMPOS DCT BUDOP DCT XOMBA/N0372F240 P974 TABIN
Aircraft A320/M-SDE1E2E3FGIJ1J4RWXY/LB1

Departure

Time 2026-05-06 18:04
Airport Bucharest Henri Coandă International Airport (LROP)

Arrival

Time 2026-05-06 19:19
Airport M. R. Štefánik Airport (LZIB)
Time Latitude Longitude Altitude Speed Heading
2026-05-06 17:45 44.57004 26.07900 320 ft 0 kts 354°
2026-05-06 17:54 44.56996 26.07901 320 ft 2 kts 354°
2026-05-06 17:55 44.56981 26.07903 320 ft 2 kts 354°
2026-05-06 17:55 44.56964 26.07906 320 ft 3 kts 352°
2026-05-06 17:55 44.56944 26.07912 319 ft 4 kts 326°
2026-05-06 17:55 44.56928 26.07938 320 ft 4 kts 294°
2026-05-06 17:56 44.56917 26.07969 318 ft 4 kts 323°
2026-05-06 17:56 44.56907 26.07978 320 ft 0 kts 350°
2026-05-06 17:56 44.56909 26.07978 320 ft 0 kts 350°
2026-05-06 17:56 44.56910 26.07977 320 ft 0 kts 350°
2026-05-06 17:58 44.56911 26.07977 320 ft 0 kts 350°
2026-05-06 17:59 44.56909 26.07966 319 ft 2 kts 250°
2026-05-06 17:59 44.56878 26.07980 320 ft 10 kts 165°
2026-05-06 17:59 44.56781 26.08011 320 ft 17 kts 135°
2026-05-06 17:59 44.56805 26.08198 320 ft 24 kts 65°
2026-05-06 18:00 44.56885 26.08407 319 ft 22 kts 66°
2026-05-06 18:00 44.56935 26.08546 320 ft 18 kts
2026-05-06 18:00 44.57081 26.08527 320 ft 21 kts 355°
2026-05-06 18:00 44.57236 26.08504 320 ft 24 kts 353°
2026-05-06 18:01 44.57424 26.08478 320 ft 24 kts 354°
2026-05-06 18:01 44.57526 26.08462 321 ft 0 kts 354°
2026-05-06 18:01 44.57533 26.08461 320 ft 0 kts 354°
2026-05-06 18:02 44.57562 26.08457 321 ft 14 kts 354°
2026-05-06 18:03 44.57671 26.08540 322 ft 26 kts 81°
2026-05-06 18:03 44.57681 26.08644 322 ft 5 kts 84°
2026-05-06 18:03 44.57708 26.09009 320 ft 72 kts 84°
2026-05-06 18:03 44.57780 26.09974 322 ft 125 kts 84°
2026-05-06 18:04 44.57886 26.11394 378 ft 161 kts 85°
2026-05-06 18:04 44.58005 26.12917 934 ft 160 kts 85°
2026-05-06 18:04 44.58141 26.14494 1498 ft 163 kts 86°
2026-05-06 18:04 44.58294 26.16133 1796 ft 180 kts 88°
2026-05-06 18:05 44.58430 26.18002 2023 ft 205 kts 88°
2026-05-06 18:05 44.58644 26.20086 2412 ft 228 kts 73°
2026-05-06 18:05 44.59655 26.21930 2785 ft 257 kts 33°
2026-05-06 18:05 44.61404 26.22642 3436 ft 270 kts
2026-05-06 18:06 44.63260 26.22260 4329 ft 272 kts 339°
2026-05-06 18:06 44.64840 26.20838 5307 ft 272 kts 314°
2026-05-06 18:06 44.65893 26.18624 6236 ft 275 kts 299°
2026-05-06 18:06 44.66798 26.16245 7078 ft 277 kts 299°
2026-05-06 18:07 44.67702 26.13840 7929 ft 279 kts 298°
2026-05-06 18:07 44.68611 26.11412 8758 ft 282 kts 299°
2026-05-06 18:07 44.69527 26.08964 9575 ft 285 kts 299°
2026-05-06 18:07 44.70452 26.06486 10307 ft 290 kts 299°
2026-05-06 18:08 44.71428 26.03882 10534 ft 313 kts 299°
2026-05-06 18:08 44.72475 26.01098 10877 ft 328 kts 299°
2026-05-06 18:08 44.73549 25.98237 11500 ft 333 kts 299°
2026-05-06 18:08 44.74637 25.95339 12162 ft 337 kts 299°
2026-05-06 18:09 44.75727 25.92433 12836 ft 341 kts 299°
2026-05-06 18:09 44.76842 25.89460 13500 ft 345 kts 298°
2026-05-06 18:09 44.77968 25.86458 14101 ft 349 kts 298°
2026-05-06 18:09 44.79106 25.83423 14722 ft 352 kts 298°
2026-05-06 18:10 44.80254 25.80357 15284 ft 356 kts 298°
2026-05-06 18:10 44.81409 25.77263 15882 ft 358 kts 298°
2026-05-06 18:10 44.82571 25.74140 16463 ft 362 kts 298°
2026-05-06 18:10 44.83742 25.70982 17034 ft 365 kts 297°
2026-05-06 18:11 44.84924 25.67801 17638 ft 368 kts 298°
2026-05-06 18:11 44.86118 25.64593 18229 ft 371 kts 298°
2026-05-06 18:11 44.87318 25.61360 18775 ft 374 kts 298°
2026-05-06 18:11 44.88521 25.58106 19357 ft 375 kts 298°
2026-05-06 18:12 44.89732 25.54832 19904 ft 378 kts 298°
2026-05-06 18:12 44.90952 25.51532 20459 ft 381 kts 298°
2026-05-06 18:12 44.92176 25.48213 21011 ft 383 kts 298°
2026-05-06 18:12 44.93410 25.44871 21560 ft 385 kts 298°
2026-05-06 18:13 44.94652 25.41508 22087 ft 387 kts 298°
2026-05-06 18:13 44.95903 25.38122 22610 ft 390 kts 298°
2026-05-06 18:13 44.97157 25.34715 23136 ft 392 kts 298°
2026-05-06 18:13 44.98417 25.31282 23649 ft 395 kts 298°
2026-05-06 18:14 44.99681 25.27830 24086 ft 397 kts 298°
2026-05-06 18:14 45.00947 25.24361 24521 ft 398 kts 298°
2026-05-06 18:14 45.02219 25.20879 24950 ft 399 kts 299°
2026-05-06 18:14 45.03726 25.17582 25387 ft 400 kts 309°
2026-05-06 18:15 45.05529 25.14594 25813 ft 401 kts 311°
2026-05-06 18:15 45.07340 25.11655 26230 ft 402 kts 311°
2026-05-06 18:15 45.09202 25.08630 26657 ft 403 kts 311°
2026-05-06 18:15 45.11012 25.05675 27051 ft 404 kts 311°
2026-05-06 18:16 45.12854 25.02659 27451 ft 405 kts 311°
2026-05-06 18:16 45.14699 24.99633 27849 ft 406 kts 311°
2026-05-06 18:16 45.16547 24.96597 28233 ft 408 kts 311°
2026-05-06 18:16 45.18403 24.93551 28626 ft 409 kts 311°
2026-05-06 18:17 45.20268 24.90486 29011 ft 411 kts 311°
2026-05-06 18:17 45.22134 24.87416 29404 ft 412 kts 311°
2026-05-06 18:17 45.24009 24.84325 29779 ft 414 kts 311°
2026-05-06 18:17 45.25888 24.81223 30138 ft 415 kts 311°
2026-05-06 18:18 45.27774 24.78110 30451 ft 417 kts 311°
2026-05-06 18:18 45.29663 24.74989 30792 ft 417 kts 311°
2026-05-06 18:18 45.31546 24.71872 31246 ft 415 kts 311°
2026-05-06 18:18 45.33420 24.68772 31675 ft 413 kts 311°
2026-05-06 18:19 45.35285 24.65685 32108 ft 411 kts 311°
2026-05-06 18:19 45.37140 24.62610 32569 ft 409 kts 311°
2026-05-06 18:19 45.38987 24.59549 33018 ft 407 kts 311°
2026-05-06 18:19 45.40825 24.56499 33473 ft 405 kts 311°
2026-05-06 18:20 45.42649 24.53463 33937 ft 403 kts 311°
2026-05-06 18:20 45.44464 24.50435 34329 ft 401 kts 311°
2026-05-06 18:20 45.46269 24.47413 34683 ft 400 kts 310°
2026-05-06 18:20 45.48070 24.44394 34978 ft 400 kts 310°
2026-05-06 18:21 45.49871 24.41378 35277 ft 400 kts 310°
2026-05-06 18:21 45.51676 24.38358 35549 ft 400 kts 310°
2026-05-06 18:21 45.53481 24.35341 35845 ft 400 kts 310°
2026-05-06 18:21 45.55286 24.32321 35992 ft 401 kts 310°
2026-05-06 18:22 45.58904 24.26253 36014 ft 401 kts 310°
2026-05-06 18:22 45.62507 24.20174 36007 ft 401 kts 308°
2026-05-06 18:23 45.65316 24.13308 35999 ft 402 kts 297°
2026-05-06 18:23 45.67775 24.06141 36006 ft 402 kts 297°
2026-05-06 18:24 45.70240 23.98968 36010 ft 402 kts 297°
2026-05-06 18:24 45.72710 23.91793 35988 ft 402 kts 297°
2026-05-06 18:25 45.75155 23.84651 35998 ft 402 kts 297°
2026-05-06 18:25 45.77613 23.77446 36007 ft 403 kts 296°
2026-05-06 18:26 45.80117 23.70276 36009 ft 402 kts 299°
2026-05-06 18:26 45.82962 23.63371 36013 ft 402 kts 302°
2026-05-06 18:27 45.85921 23.56560 36010 ft 402 kts 302°
2026-05-06 18:27 45.88826 23.49705 36007 ft 402 kts 301°
2026-05-06 18:28 45.91683 23.42796 36010 ft 402 kts 300°
2026-05-06 18:28 45.94527 23.35870 36004 ft 402 kts 300°
2026-05-06 18:29 45.97377 23.28941 35999 ft 403 kts 300°
2026-05-06 18:29 46.00230 23.22013 36005 ft 403 kts 300°
2026-05-06 18:30 46.03077 23.15069 36001 ft 403 kts 300°
2026-05-06 18:30 46.05917 23.08108 36008 ft 403 kts 300°
2026-05-06 18:31 46.08754 23.01148 36006 ft 403 kts 300°
2026-05-06 18:31 46.11587 22.94177 36003 ft 403 kts 300°
2026-05-06 18:32 46.14418 22.87201 36011 ft 403 kts 300°
2026-05-06 18:32 46.17248 22.80214 36005 ft 403 kts 299°
2026-05-06 18:33 46.20054 22.73265 35997 ft 404 kts 299°
2026-05-06 18:33 46.22870 22.66247 35998 ft 404 kts 299°
2026-05-06 18:34 46.25687 22.59222 35992 ft 404 kts 299°
2026-05-06 18:34 46.28503 22.52190 35992 ft 404 kts 298°
2026-05-06 18:35 46.31314 22.45146 35985 ft 405 kts 298°
2026-05-06 18:35 46.34131 22.38093 35991 ft 405 kts 298°
2026-05-06 18:36 46.36943 22.31031 35984 ft 405 kts 298°
2026-05-06 18:36 46.39748 22.23949 35984 ft 405 kts 298°
2026-05-06 18:37 46.42099 22.18011 35976 ft 406 kts 298°
2026-05-06 18:37 46.45355 22.09757 35974 ft 406 kts 298°
2026-05-06 18:38 46.48151 22.02630 35964 ft 407 kts 298°
2026-05-06 18:38 46.50955 21.95500 35982 ft 407 kts 298°
2026-05-06 18:39 46.53750 21.88369 35978 ft 406 kts 297°
2026-05-06 18:40 46.57927 21.77650 35958 ft 407 kts 297°
2026-05-06 18:40 46.60708 21.70487 35956 ft 407 kts 297°
2026-05-06 18:41 46.63486 21.63316 35949 ft 407 kts 297°
2026-05-06 18:41 46.65794 21.57356 35945 ft 407 kts 297°
2026-05-06 18:42 46.68563 21.50167 35932 ft 407 kts 296°
2026-05-06 18:42 46.71147 21.42829 35932 ft 407 kts 293°
2026-05-06 18:43 46.73560 21.35359 35932 ft 407 kts 293°
2026-05-06 18:43 46.75972 21.27881 35931 ft 408 kts 293°
2026-05-06 18:44 46.78424 21.20413 35951 ft 408 kts 293°
2026-05-06 18:44 46.80890 21.12945 35936 ft 409 kts 293°
2026-05-06 18:45 46.83349 21.05454 35937 ft 409 kts 293°
2026-05-06 18:45 46.85792 20.97953 35930 ft 409 kts 292°
2026-05-06 18:46 46.88217 20.90494 35929 ft 409 kts 292°
2026-05-06 18:46 46.90660 20.82976 35934 ft 409 kts 292°
2026-05-06 18:47 46.93098 20.75445 35931 ft 410 kts 292°
2026-05-06 18:47 46.95538 20.67903 35932 ft 410 kts 292°
2026-05-06 18:48 46.97971 20.60344 35933 ft 410 kts 292°
2026-05-06 18:48 47.00396 20.52785 35923 ft 410 kts 292°
2026-05-06 18:49 47.02809 20.45223 35921 ft 410 kts 292°
2026-05-06 18:49 47.05220 20.37667 35915 ft 410 kts 292°
2026-05-06 18:50 47.07633 20.30105 35918 ft 410 kts 292°
2026-05-06 18:50 47.10041 20.22526 35909 ft 410 kts 292°
2026-05-06 18:51 47.12438 20.14942 35917 ft 410 kts 291°
2026-05-06 18:51 47.14832 20.07332 35905 ft 411 kts 291°
2026-05-06 18:52 47.17234 19.99705 35904 ft 411 kts 291°
2026-05-06 18:52 47.19633 19.92065 35903 ft 412 kts 291°
2026-05-06 18:53 47.22020 19.84404 35906 ft 412 kts 291°
2026-05-06 18:53 47.24403 19.76732 35917 ft 413 kts 291°
2026-05-06 18:54 47.26784 19.69056 35903 ft 414 kts 291°
2026-05-06 18:54 47.29173 19.61335 35691 ft 415 kts 291°
2026-05-06 18:54 47.30373 19.57456 35453 ft 415 kts 291°
2026-05-06 18:55 47.31565 19.53595 35191 ft 413 kts 291°
2026-05-06 18:55 47.32750 19.49757 34785 ft 409 kts 291°
2026-05-06 18:55 47.33923 19.45954 34333 ft 406 kts 291°
2026-05-06 18:55 47.35085 19.42175 33896 ft 404 kts 290°
2026-05-06 18:56 47.36242 19.38405 33400 ft 401 kts 290°
2026-05-06 18:56 47.37385 19.34671 32956 ft 397 kts 290°
2026-05-06 18:56 47.38515 19.30971 32513 ft 394 kts 290°
2026-05-06 18:56 47.39632 19.27304 32067 ft 390 kts 290°
2026-05-06 18:57 47.40740 19.23662 31628 ft 388 kts 290°
2026-05-06 18:57 47.41816 19.20123 31213 ft 385 kts 291°
2026-05-06 18:57 47.42921 19.16483 30777 ft 383 kts 291°
2026-05-06 18:57 47.44006 19.12903 30345 ft 381 kts 291°
2026-05-06 18:58 47.45083 19.09343 29930 ft 379 kts 291°
2026-05-06 18:58 47.46155 19.05793 29494 ft 377 kts 290°
2026-05-06 18:58 47.47219 19.02276 29076 ft 374 kts 290°
2026-05-06 18:58 47.48276 18.98781 28689 ft 371 kts 290°
2026-05-06 18:59 47.49322 18.95317 28309 ft 369 kts 290°
2026-05-06 18:59 47.50362 18.91860 27920 ft 367 kts 290°
2026-05-06 18:59 47.51394 18.88416 27537 ft 365 kts 290°
2026-05-06 18:59 47.52406 18.85036 27169 ft 362 kts 290°
2026-05-06 19:00 47.53433 18.81604 26790 ft 360 kts 290°
2026-05-06 19:00 47.54444 18.78221 26425 ft 358 kts 290°
2026-05-06 19:00 47.55448 18.74870 26060 ft 355 kts 290°
2026-05-06 19:00 47.56448 18.71535 25685 ft 353 kts 290°
2026-05-06 19:01 47.57424 18.68263 25303 ft 351 kts 290°
2026-05-06 19:01 47.58411 18.64965 24892 ft 350 kts 291°
2026-05-06 19:01 47.59782 18.61890 24083 ft 369 kts 311°
2026-05-06 19:01 47.61687 18.59238 23623 ft 371 kts 313°
2026-05-06 19:02 47.63550 18.56667 23144 ft 370 kts 313°
2026-05-06 19:02 47.65424 18.54060 22706 ft 368 kts 313°
2026-05-06 19:02 47.67276 18.51471 22270 ft 365 kts 313°
2026-05-06 19:02 47.69120 18.48893 21836 ft 363 kts 313°
2026-05-06 19:03 47.70953 18.46331 21405 ft 361 kts 313°
2026-05-06 19:03 47.72777 18.43781 20965 ft 359 kts 313°
2026-05-06 19:03 47.74589 18.41243 20538 ft 358 kts 313°
2026-05-06 19:03 47.76394 18.38711 20119 ft 356 kts 312°
2026-05-06 19:04 47.78192 18.36185 19679 ft 355 kts 312°
2026-05-06 19:04 47.79987 18.33666 19231 ft 354 kts 313°
2026-05-06 19:04 47.81774 18.31156 18813 ft 353 kts 313°
2026-05-06 19:04 47.83560 18.28648 18389 ft 353 kts 312°
2026-05-06 19:05 47.85341 18.26144 17931 ft 352 kts 312°
2026-05-06 19:05 47.87115 18.23644 17490 ft 349 kts 312°
2026-05-06 19:05 47.88878 18.21157 16901 ft 351 kts 312°
2026-05-06 19:05 47.90663 18.18627 16152 ft 358 kts 312°
2026-05-06 19:06 47.92480 18.16046 15419 ft 364 kts 312°
2026-05-06 19:06 47.94322 18.13431 14708 ft 368 kts 312°
2026-05-06 19:06 47.96188 18.10787 14008 ft 372 kts 312°
2026-05-06 19:06 47.98073 18.08118 13296 ft 374 kts 312°
2026-05-06 19:07 47.99967 18.05434 12541 ft 376 kts 312°
2026-05-06 19:07 48.01865 18.02747 11857 ft 375 kts 312°
2026-05-06 19:07 48.03751 18.00070 11232 ft 373 kts 312°
2026-05-06 19:07 48.05623 17.97408 10608 ft 371 kts 311°
2026-05-06 19:08 48.07487 17.94757 10017 ft 368 kts 311°
2026-05-06 19:08 48.09315 17.92157 9432 ft 355 kts 311°
2026-05-06 19:08 48.11061 17.89680 8836 ft 338 kts 311°
2026-05-06 19:08 48.12727 17.87309 8341 ft 323 kts 311°
2026-05-06 19:09 48.14326 17.85020 7919 ft 317 kts 310°
2026-05-06 19:09 48.15914 17.82734 7504 ft 314 kts 310°
2026-05-06 19:09 48.17455 17.80522 7108 ft 300 kts 310°
2026-05-06 19:09 48.18939 17.78394 6745 ft 294 kts 310°
2026-05-06 19:10 48.20412 17.76269 6407 ft 293 kts 309°
2026-05-06 19:10 48.21875 17.74156 6082 ft 291 kts 309°
2026-05-06 19:10 48.23332 17.72054 5747 ft 289 kts 309°
2026-05-06 19:10 48.24716 17.69901 5419 ft 281 kts 298°
2026-05-06 19:11 48.25478 17.67316 5105 ft 267 kts 278°
2026-05-06 19:11 48.25918 17.64635 4791 ft 264 kts 276°
2026-05-06 19:11 48.26323 17.61960 4508 ft 261 kts 276°
2026-05-06 19:11 48.26718 17.59332 4270 ft 256 kts 276°
2026-05-06 19:12 48.27113 17.56779 3988 ft 244 kts 276°
2026-05-06 19:12 48.27506 17.54357 3817 ft 236 kts 276°
2026-05-06 19:12 48.27900 17.51998 3640 ft 230 kts 276°
2026-05-06 19:12 48.28290 17.49686 3422 ft 227 kts 275°
2026-05-06 19:13 48.28419 17.47415 3196 ft 213 kts 258°
2026-05-06 19:13 48.28296 17.45218 3063 ft 210 kts 256°
2026-05-06 19:13 48.28144 17.43033 3023 ft 212 kts 256°
2026-05-06 19:13 48.27980 17.40833 3028 ft 210 kts 256°
2026-05-06 19:14 48.27828 17.38727 3049 ft 195 kts 256°
2026-05-06 19:14 48.27515 17.36869 3015 ft 173 kts 237°
2026-05-06 19:14 48.26846 17.35483 2831 ft 158 kts 219°
2026-05-06 19:14 48.26090 17.34390 2655 ft 144 kts 219°
2026-05-06 19:15 48.25418 17.33414 2479 ft 125 kts 217°
2026-05-06 19:15 48.24809 17.32534 2326 ft 119 kts 216°
2026-05-06 19:15 48.24222 17.31687 2165 ft 118 kts 216°
2026-05-06 19:15 48.23629 17.30831 2012 ft 116 kts 216°
2026-05-06 19:16 48.23045 17.29988 1862 ft 118 kts 217°
2026-05-06 19:16 48.22459 17.29142 1714 ft 117 kts 217°
2026-05-06 19:16 48.21868 17.28297 1539 ft 118 kts 216°
2026-05-06 19:16 48.21253 17.27432 1403 ft 120 kts 218°
2026-05-06 19:17 48.20653 17.26575 1233 ft 124 kts 218°
2026-05-06 19:17 48.20031 17.25666 1025 ft 123 kts 216°
2026-05-06 19:17 48.19399 17.24748 846 ft 126 kts 213°
2026-05-06 19:17 48.18755 17.23809 695 ft 134 kts 218°
2026-05-06 19:18 48.18110 17.22866 531 ft 128 kts 219°
2026-05-06 19:18 48.17500 17.21990 423 ft 108 kts 221°
2026-05-06 19:18 48.17025 17.21313 430 ft 84 kts 223°
2026-05-06 19:18 48.16650 17.20782 433 ft 66 kts 224°
2026-05-06 19:19 48.16376 17.20371 428 ft 51 kts 224°
2026-05-06 19:19 48.16283 17.20188 432 ft 2 kts 320°
2026-05-06 19:19 48.16326 17.20163 429 ft 10 kts 329°
2026-05-06 19:19 48.16363 17.20108 431 ft 0 kts 312°
2026-05-06 19:21 48.16390 17.20063 434 ft 13 kts 312°
2026-05-06 19:21 48.16468 17.20075 430 ft 14 kts 58°
2026-05-06 19:22 48.16568 17.20196 433 ft 23 kts 46°
2026-05-06 19:22 48.16697 17.20363 430 ft 13 kts 34°
2026-05-06 19:22 48.16745 17.20314 432 ft 14 kts 316°
2026-05-06 19:22 48.16832 17.20192 432 ft 14 kts 320°
2026-05-06 19:23 48.16845 17.20097 432 ft 3 kts 230°
2026-05-06 19:23 48.16831 17.20076 430 ft 3 kts 224°